Flag for Israel Weather past 2 weeks in Rehovot, Israel

Now
79 °F

Clear.


Feels Like: 82 °F
Forecast: 73 / 90 °F
Wind: 3 mph from North

Location: Ben Gurion International Airport

Current Time: Jul 29, 2015 at 1:05:23 AM

Latest Report: Jul 29, 2015 at 12:20 AM


Visibility: 10 mi

Pressure: 29.71 "Hg

Humidity: 79%

Dew point: 72 °F

Location of RehovotLocation

Historic Weather in Rehovot — Graph

°F

Rehovot temperature yesterday

Maximum temperature yesterday: 88 °F (at 11:50 AM)
Minimum temperature yesterday: 75 °F (at 4:20 AM)
Average temperature yesterday: 82 °F

Past Weeks' High & Low Weather Summary

 TemperatureHumidityPressure
High97 °F (Jul 24, 10:50 AM)89% (Jul 18, 12:20 AM)29.80 "Hg (Jul 18, 12:20 AM)
Low72 °F (Jul 24, 5:50 AM)28% (Jul 24, 10:20 AM)29.68 "Hg (Jul 19, 4:20 PM)
Average82 °F66%29.74 "Hg
* Reported Jul 13 11:20 PM — Jul 28 11:20 PM, Rehovot, Weather by CustomWeather, © 2015

Note: Actual official high and low records may vary slightly from our data, if they occured in-between our weather recording intervals... More about our weather records

Advertising

Rehovot weather history for previous 24 hours

 ConditionsComfort  
Time TempWeatherWind HumidityBarometerVisibility
11:20 PM
Tue, Jul 28
79 °FClear.5 mph74%29.74 "Hg10 mi
10:50 PM79 °FClear.5 mph74%29.74 "Hg10 mi
10:20 PM81 °FClear.3 mph70%29.74 "Hg10 mi
9:50 PM81 °FClear.5 mph70%29.71 "Hg10 mi
9:20 PM81 °FClear.6 mph70%29.71 "Hg10 mi
8:50 PM81 °FClear.5 mph70%29.71 "Hg10 mi
8:20 PM82 °FSunny.5 mph66%29.71 "Hg10 mi
7:50 PM82 °FSunny.6 mph66%29.71 "Hg10 mi
7:20 PM82 °FSunny.8 mph66%29.71 "Hg10 mi
6:50 PM84 °FSunny.9 mph62%29.68 "Hg10 mi
6:20 PM86 °FPassing clouds.8 mph59%29.68 "HgN/A
5:50 PM86 °FPassing clouds.9 mph55%29.68 "HgN/A
5:20 PM86 °FPassing clouds.10 mph55%29.68 "HgN/A
4:50 PM86 °FPassing clouds.12 mph59%29.68 "HgN/A
4:20 PM88 °FPassing clouds.10 mph55%29.68 "HgN/A
3:50 PM86 °FPassing clouds.13 mph59%29.68 "HgN/A
3:20 PM86 °FSunny.10 mph59%29.68 "Hg10 mi
2:50 PM86 °FSunny.12 mph55%29.68 "Hg10 mi
2:20 PM86 °FPassing clouds.13 mph59%29.68 "HgN/A
1:50 PM88 °FPassing clouds.13 mph55%29.68 "HgN/A
1:20 PM88 °FSunny.12 mph55%29.71 "Hg10 mi
12:50 PM86 °FSunny.12 mph59%29.71 "Hg10 mi
12:20 PM86 °FPassing clouds.13 mph62%29.71 "HgN/A
11:50 AM88 °FPassing clouds.9 mph55%29.71 "HgN/A
11:20 AM86 °FPassing clouds.8 mph59%29.71 "HgN/A
10:50 AM86 °FPassing clouds.3 mph59%29.71 "HgN/A
10:20 AM86 °FPassing clouds.5 mph59%29.71 "HgN/A
9:50 AM84 °FScattered clouds.2 mph62%29.71 "HgN/A
9:20 AM84 °FScattered clouds.2 mph62%29.71 "HgN/A
8:50 AM82 °FScattered clouds.1 mph66%29.71 "HgN/A
8:20 AM81 °FScattered clouds.3 mph74%29.71 "HgN/A
7:50 AM79 °FScattered clouds.6 mph79%29.71 "Hg5 mi
7:20 AM79 °FScattered clouds.5 mph74%29.68 "Hg4 mi
6:50 AM77 °FPassing clouds.3 mph79%29.68 "HgN/A
6:20 AM75 °FPassing clouds.5 mph83%29.68 "HgN/A
5:50 AM77 °FPassing clouds.5 mph79%29.68 "HgN/A
5:20 AM77 °FPassing clouds.5 mph79%29.68 "HgN/A
4:50 AM75 °FPassing clouds.5 mph83%29.68 "HgN/A
4:20 AM75 °FPassing clouds.3 mph83%29.68 "HgN/A
3:50 AM77 °FPassing clouds.5 mph74%29.68 "HgN/A
3:20 AM77 °FPassing clouds.3 mph79%29.68 "HgN/A
2:50 AM77 °FPassing clouds.5 mph79%29.68 "HgN/A
2:20 AM77 °FPassing clouds.3 mph79%29.68 "HgN/A
1:50 AM79 °FPassing clouds.3 mph74%29.68 "HgN/A
1:20 AM79 °FPassing clouds.2 mph74%29.71 "HgN/A
Weather by CustomWeather, © 2015

See weather overviewHow to use our weather pages